Simultaneous Nadir Overpasses (SNOs) Predictions

Prediction of SNOs between FY3D and TERRA Satellite Orbit:

Table of predicted SNOs for the next 14.0 days since TLE Epoch: 11/22/2025
Index Date (FY3D) Time (FY3D) Lat,Lon (FY3D) SZA (FY3D ) Date (TERRA) Time (TERRA) Lat,Lon (TERRA) SZA (TERRA ) Distance(km) Time Diff (sec)
1 11/22/2025 20:16:01 -78.50, 56.15 81.23 11/22/2025 20:16:20 -78.49, 56.29 81.25 3.38 19
2 11/22/2025 21:06:45 78.46,-136.30 98.74 11/22/2025 21:05:40 78.44,-136.26 98.72 2.43 65
3 11/25/2025 06:37:22 78.49, 80.96 99.25 11/25/2025 06:37:35 78.51, 81.04 99.27 3.15 13
4 11/25/2025 07:28:06 -78.48,-111.66 80.76 11/25/2025 07:26:55 -78.46,-111.55 80.78 3.12 71
5 11/27/2025 16:58:43 -78.51, 105.57 80.29 11/27/2025 16:58:50 -78.52, 105.69 80.28 2.93 7
6 11/27/2025 17:49:22 78.28, -85.72 99.51 11/27/2025 17:48:12 78.37, -87.34 99.58 37.71 70
7 11/30/2025 03:20:04 78.50, 130.34 100.12 11/30/2025 03:20:05 78.49, 130.22 100.11 2.78 1
8 12/02/2025 12:50:47 78.79, -14.17 100.77 12/02/2025 12:51:55 78.68, -11.86 100.68 51.68 68
9 12/02/2025 13:41:24 -78.53, 154.88 79.49 12/02/2025 13:41:18 -78.52, 154.98 79.50 2.54 6
10 12/04/2025 23:12:01 -78.57, 12.03 79.12 12/04/2025 23:13:12 -78.57, 12.19 79.12 3.60 71
11 12/05/2025 00:02:45 78.53, 179.61 100.85 12/05/2025 00:02:31 78.53, 179.70 100.85 2.11 14



Historial Predications of SNOs between FY3D and TERRA
